Simultaneous Nadir Overpasses (SNOs) Predictions

Prediction of SNOs between AQUA and NPP Satellite Orbit:

Table of predicted SNOs for the next 14.0 days since TLE Epoch: 8/21/2020
Index Date (AQUA) Time (AQUA) Lat,Lon (AQUA) SZA (AQUA ) Date (NPP) Time (NPP) Lat,Lon (NPP) SZA (NPP ) Distance(km) Time Diff (sec)
1 08/23/2020 06:21:56 -75.58, 142.36 93.21 08/23/2020 06:21:47 -75.58, 142.32 93.20 1.25 9
2 08/23/2020 07:11:03 76.50, -47.14 85.73 08/23/2020 07:12:11 76.49, -47.23 85.70 2.61 68
3 08/25/2020 21:49:11 74.92, 88.80 88.39 08/25/2020 21:48:11 74.93, 88.83 88.43 1.11 60
4 08/25/2020 22:38:13 -76.18, -99.95 93.04 08/25/2020 22:38:30 -76.19, -99.86 93.08 2.63 17
5 08/28/2020 14:05:33 75.23,-154.52 88.93 08/28/2020 14:05:00 75.22,-154.53 88.96 0.50 33
6 08/28/2020 14:54:37 -76.38, 16.57 92.39 08/28/2020 14:55:21 -76.39, 16.60 92.44 0.93 44
7 08/31/2020 06:21:56 75.52, -37.81 89.49 08/31/2020 06:21:50 75.52, -37.87 89.51 1.80 6
8 08/31/2020 07:11:01 -76.62, 133.27 91.78 08/31/2020 07:12:12 -76.62, 133.25 91.83 0.51 71
9 09/02/2020 21:49:17 -74.65, -91.90 88.64 09/02/2020 21:48:21 -74.64, -91.98 88.57 2.34 56
